This demonstration page uses our WeatherBlox Daily Observations layout. Learn more.

Left ArrowRight Arrow

41.12389, -100.76542

Hourly Observations for March 29, 2015

Temp ( °F °C ) Dew Point ( °F °C ) Humidity (%) Winds ( mph kmh ) Pressure ( in mb ) Visibility ( mi km ) Precip ( " mm )
12:11 am 00:11 Partly Cloudy with Light Rain 62 16.7 37 2.8 40 40 SSE 17 28 29.68 1005 10 16 0.00 0.03
12:53 am 00:53 Clear 60 15.6 38 3.3 44 44 SE 8 13 29.72 1006 10 16 0.00 0.03
1:53 am 01:53 Clear 57 13.9 37 2.8 47 47 NNW 10 17 29.78 1009 10 16 0.00 0.00
2:53 am 02:53 Clear 59 15 29 -1.7 32 32 N 16 26 29.85 1011 10 16 0.00 0.00
3:53 am 03:53 Clear 54 12.2 32 0 43 43 NW 7 11 29.89 1012 10 16 0.00 0.00
4:53 am 04:53 Clear 43 6.1 31 -0.6 63 63 WNW 7 11 29.93 1013 10 16 0.00 0.00
5:53 am 05:53 Clear 42 5.6 32 0 68 68 WNW 9 15 29.96 1014 10 16 0.00 0.00
6:53 am 06:53 Clear 47 8.3 24 -4.4 41 41 W 18 30 29.98 1015 10 16 0.00 0.00
7:53 am 07:53 Sunny 48 8.9 24 -4.4 39 39 NW 20 31 30.02 1017 10 16 0.00 0.00
8:53 am 08:53 Sunny 51 10.6 27 -2.8 39 39 NW 21 33 30.08 1019 10 16 0.00 0.00
9:53 am 09:53 Sunny 53 11.7 28 -2.2 38 38 NNW 30 48 30.10 1019 10 16 0.00 0.00
10:53 am 10:53 Sunny 54 12.2 28 -2.2 37 37 NNW 26 43 30.13 1020 10 16 0.00 0.00
11:53 am 11:53 Sunny 57 13.9 26 -3.3 30 30 N 28 44 30.16 1021 10 16 0.00 0.00
12:53 pm 12:53 Sunny 58 14.4 22 -5.6 25 25 N 29 46 30.16 1022 10 16 0.00 0.00
1:53 pm 13:53 Sunny 60 15.6 19 -7.2 20 20 NNW 22 35 30.14 1021 10 16 0.00 0.00
2:53 pm 14:53 Sunny 63 17.2 17 -8.3 17 17 NW 17 28 30.14 1021 10 16 0.00 0.00
3:53 pm 15:53 Sunny 63 17.2 17 -8.3 17 17 NNW 15 24 30.13 1020 10 16 0.00 0.00
4:53 pm 16:53 Sunny 63 17.2 17 -8.3 17 17 NNW 16 26 30.14 1021 10 16 0.00 0.00
5:53 pm 17:53 Sunny 63 17.2 19 -7.2 18 18 NW 12 19 30.13 1020 10 16 0.00 0.00
6:53 pm 18:53 Sunny 62 16.7 18 -7.8 18 18 N 8 13 30.11 1020 10 16 0.00 0.00
7:53 pm 19:53 Sunny 56 13.3 18 -7.8 22 22 N 3 6 30.13 1020 10 16 0.00 0.00
8:53 pm 20:53 Clear 46 7.8 19 -7.2 34 34 SE 5 7 30.15 1021 10 16 0.00 0.00
9:53 pm 21:53 Clear 41 5 21 -6.1 45 45 SE 6 9 30.16 1021 10 16 0.00 0.00
10:53 pm 22:53 Clear 36 2.2 24 -4.4 62 62 SE 5 7 30.16 1021 10 16 0.00 0.00
11:53 pm 23:53 Clear 35 1.7 27 -2.8 72 72 Calm 30.16 1021 10 16 0.00 0.00

Powered by AerisWeather